{"data":{"norad_id":39074,"epoch":"2026-05-25T04:08:37.476672Z","epoch_age_seconds":74204,"freshness":"FRESH","line1":"1 39074U 13005C   26145.17265598 -.00000091  00000+0  68550-4 0  9991","line2":"2 39074  51.9954 220.8723 0000204 176.2449 183.8419 12.62268166615568","mean_motion":12.62268166,"eccentricity":2.04e-5,"inclination_deg":51.9954,"raan_deg":220.8723,"arg_perigee_deg":176.2449,"mean_anomaly_deg":183.8419,"bstar":6.855e-5,"rev_number":61556,"period_min":114.08035461777,"perigee_km":1413.4375177628,"apogee_km":1413.7554204883,"semimajor_km":7791.7334691256,"source":"CELESTRAK","updated_at":"2026-05-25T13:38:23.046539Z"}}